GFSMW_prec_precacc24_057.txt.gz
Total_Precipitation_Accumulation
0.00 0.00 0.00 0.00 0.00 0.00 0.01 0.05 0.21 0.19 0.32 0.30 0.17 0.15 0.15 0.10 0.05 0.07 0.06 0.23 0.11 0.12 0.06 0.02 0.02 0.01 0.01 0.01 0.01 0.00 0.00 0.00 0.00 0.00 0.00 0.00 0.00 0.00 0.00 0.00 0.00 0.00 0.00
0.00 0.00 0.00 0.00 0.00 0.00 0.01 0.01 0.03 0.08 0.16 0.22 0.23 0.08 0.04 0.04 0.01 0.02 0.10 0.21 0.21 0.07 0.07 0.05 0.04 0.03 0.02 0.00 0.01 0.00 0.00 0.00 0.00 0.00 0.00 0.00 0.00 0.00 0.00 0.00 0.00 0.00 0.00
0.00 0.00 0.00 0.00 0.00 0.00 0.00 0.01 0.00 0.02 0.04 0.13 0.23 0.15 0.11 0.06 0.04 0.02 0.05 0.08 0.13 0.04 0.06 0.04 0.03 0.04 0.03 0.01 0.00 0.00 0.00 0.00 0.00 0.00 0.00 0.00 0.00 0.00 0.00 0.00 0.00 0.00 0.00
0.00 0.00 0.00 0.00 0.00 0.00 0.00 0.01 0.00 0.00 0.01 0.02 0.05 0.05 0.07 0.04 0.01 0.00 0.01 0.03 0.03 0.09 0.19 0.07 0.02 0.01 0.01 0.01 0.03 0.02 0.02 0.01 0.01 0.01 0.01 0.00 0.00 0.01 0.03 0.01 0.00 0.00 0.00
0.00 0.00 0.00 0.00 0.00 0.00 0.00 0.00 0.01 0.00 0.00 0.00 0.01 0.01 0.01 0.01 0.01 0.01 0.01 0.01 0.04 0.07 0.12 0.09 0.06 0.04 0.06 0.09 0.11 0.10 0.12 0.13 0.19 0.12 0.04 0.02 0.01 0.01 0.03 0.06 0.04 0.01 0.00
0.00 0.00 0.00 0.00 0.00 0.00 0.00 0.00 0.01 0.01 0.00 0.00 0.00 0.00 0.03 0.01 0.00 0.01 0.02 0.03 0.03 0.18 0.22 0.18 0.16 0.17 0.20 0.29 0.32 0.38 0.26 0.18 0.17 0.21 0.12 0.13 0.12 0.07 0.05 0.03 0.04 0.07 0.04
0.00 0.00 0.00 0.00 0.00 0.00 0.00 0.00 0.00 0.00 0.01 0.00 0.00 0.00 0.01 0.01 0.00 0.01 0.12 0.15 0.13 0.26 0.25 0.23 0.22 0.20 0.30 0.36 0.33 0.33 0.26 0.25 0.22 0.23 0.31 0.25 0.13 0.08 0.07 0.07 0.06 0.09 0.07
0.00 0.00 0.00 0.00 0.00 0.00 0.00 0.00 0.00 0.00 0.00 0.00 0.00 0.00 0.01 0.01 0.04 0.08 0.24 0.32 0.22 0.14 0.28 0.30 0.34 0.29 0.22 0.25 0.26 0.23 0.26 0.29 0.31 0.31 0.29 0.27 0.21 0.17 0.19 0.24 0.29 0.28 0.19
0.00 0.00 0.00 0.00 0.00 0.00 0.00 0.00 0.00 0.00 0.00 0.00 0.00 0.01 0.07 0.12 0.20 0.23 0.21 0.27 0.22 0.13 0.20 0.28 0.27 0.26 0.36 0.44 0.44 0.41 0.37 0.35 0.28 0.23 0.18 0.14 0.10 0.12 0.13 0.13 0.14 0.18 0.24
0.00 0.00 0.01 0.00 0.00 0.00 0.02 0.01 0.00 0.02 0.07 0.09 0.02 0.03 0.13 0.12 0.13 0.13 0.30 0.31 0.33 0.37 0.45 0.46 0.45 0.43 0.40 0.42 0.42 0.36 0.29 0.25 0.19 0.15 0.14 0.14 0.15 0.15 0.17 0.16 0.16 0.19 0.29
0.00 0.00 0.01 0.01 0.01 0.00 0.01 0.05 0.12 0.32 0.28 0.29 0.29 0.20 0.18 0.31 0.43 0.44 0.48 0.50 0.51 0.52 0.53 0.50 0.40 0.29 0.25 0.31 0.36 0.41 0.47 0.45 0.39 0.34 0.30 0.25 0.26 0.28 0.26 0.27 0.26 0.24 0.26
0.00 0.00 0.00 0.00 0.01 0.01 0.01 0.02 0.06 0.14 0.23 0.33 0.54 0.73 0.55 0.83 1.36 1.43 1.14 1.39 1.43 1.10 0.87 0.67 0.44 0.30 0.18 0.13 0.13 0.18 0.21 0.23 0.24 0.25 0.29 0.26 0.31 0.37 0.32 0.25 0.18 0.14 0.11
0.00 0.00 0.00 0.00 0.00 0.00 0.00 0.01 0.06 0.17 0.36 0.53 0.68 0.74 0.62 1.00 0.92 0.61 0.44 0.37 0.49 0.47 0.28 0.19 0.13 0.09 0.06 0.04 0.04 0.09 0.15 0.19 0.15 0.17 0.18 0.14 0.13 0.10 0.07 0.07 0.07 0.07 0.08
0.00 0.00 0.00 0.00 0.00 0.00 0.00 0.00 0.02 0.17 0.25 0.23 0.33 0.26 0.20 0.32 0.33 0.29 0.23 0.19 0.17 0.17 0.16 0.15 0.15 0.11 0.05 0.04 0.04 0.03 0.04 0.07 0.09 0.08 0.06 0.07 0.05 0.05 0.05 0.07 0.06 0.05 0.06
0.00 0.00 0.00 0.00 0.00 0.00 0.00 0.00 0.01 0.05 0.07 0.05 0.10 0.09 0.20 0.16 0.15 0.10 0.13 0.15 0.18 0.25 0.21 0.21 0.11 0.10 0.10 0.09 0.09 0.04 0.04 0.05 0.04 0.03 0.03 0.04 0.08 0.08 0.04 0.02 0.01 0.01 0.02
0.00 0.00 0.00 0.00 0.00 0.00 0.00 0.00 0.00 0.02 0.03 0.03 0.07 0.06 0.10 0.10 0.10 0.06 0.05 0.09 0.11 0.13 0.18 0.20 0.19 0.16 0.15 0.24 0.21 0.13 0.07 0.05 0.05 0.04 0.05 0.06 0.11 0.06 0.07 0.05 0.04 0.03 0.02
0.00 0.00 0.00 0.00 0.01 0.00 0.00 0.00 0.00 0.01 0.02 0.05 0.04 0.05 0.06 0.08 0.06 0.08 0.06 0.08 0.11 0.09 0.10 0.11 0.15 0.18 0.18 0.27 0.19 0.18 0.09 0.09 0.10 0.07 0.07 0.06 0.08 0.14 0.04 0.09 0.08 0.05 0.05
0.00 0.00 0.00 0.00 0.00 0.00 0.00 0.00 0.00 0.00 0.01 0.03 0.04 0.04 0.04 0.05 0.06 0.06 0.08 0.08 0.08 0.09 0.08 0.09 0.11 0.10 0.12 0.20 0.16 0.16 0.06 0.05 0.06 0.06 0.06 0.06 0.07 0.11 0.11 0.06 0.07 0.06 0.08
0.00 0.00 0.00 0.00 0.00 0.00 0.00 0.00 0.00 0.01 0.01 0.02 0.02 0.03 0.05 0.05 0.05 0.05 0.04 0.05 0.07 0.10 0.10 0.09 0.09 0.09 0.12 0.22 0.14 0.10 0.03 0.06 0.09 0.06 0.07 0.10 0.07 0.22 0.18 0.10 0.11 0.12 0.11
0.00 0.00 0.00 0.00 0.00 0.00 0.00 0.01 0.00 0.00 0.01 0.01 0.01 0.02 0.02 0.02 0.01 0.03 0.02 0.04 0.06 0.06 0.05 0.06 0.06 0.13 0.08 0.26 0.17 0.11 0.02 0.05 0.06 0.05 0.09 0.17 0.10 0.14 0.07 0.03 0.02 0.04 0.04
0.00 0.00 0.00 0.00 0.00 0.00 0.00 0.00 0.00 0.00 0.00 0.01 0.01 0.03 0.03 0.04 0.04 0.01 0.02 0.02 0.03 0.02 0.03 0.04 0.03 0.04 0.09 0.14 0.15 0.11 0.03 0.02 0.06 0.09 0.10 0.15 0.20 0.12 0.08 0.06 0.05 0.05 0.04
0.00 0.00 0.00 0.00 0.00 0.00 0.00 0.00 0.00 0.00 0.01 0.03 0.04 0.05 0.06 0.08 0.06 0.05 0.06 0.06 0.04 0.04 0.04 0.04 0.04 0.04 0.06 0.12 0.12 0.10 0.10 0.13 0.06 0.10 0.12 0.18 0.21 0.12 0.10 0.07 0.05 0.03 0.01
0.00 0.00 0.00 0.00 0.00 0.00 0.00 0.00 0.01 0.03 0.05 0.06 0.07 0.09 0.09 0.06 0.05 0.05 0.06 0.06 0.06 0.07 0.08 0.07 0.08 0.09 0.08 0.11 0.15 0.13 0.12 0.12 0.10 0.14 0.18 0.20 0.17 0.12 0.07 0.03 0.01 0.00 0.01
0.01 0.00 0.00 0.00 0.00 0.00 0.00 0.02 0.05 0.04 0.04 0.03 0.07 0.06 0.05 0.08 0.05 0.05 0.05 0.06 0.06 0.07 0.06 0.06 0.06 0.08 0.09 0.11 0.12 0.12 0.11 0.11 0.12 0.14 0.14 0.11 0.08 0.04 0.02 0.01 0.01 0.01 0.01
0.03 0.02 0.01 0.02 0.03 0.04 0.06 0.07 0.06 0.09 0.11 0.08 0.07 0.06 0.06 0.06 0.05 0.05 0.08 0.05 0.06 0.08 0.05 0.05 0.05 0.06 0.07 0.09 0.10 0.08 0.07 0.08 0.09 0.10 0.09 0.07 0.05 0.03 0.02 0.01 0.00 0.00 0.01
0.18 0.15 0.13 0.10 0.10 0.12 0.16 0.16 0.15 0.14 0.14 0.11 0.10 0.11 0.09 0.07 0.06 0.05 0.08 0.13 0.13 0.13 0.12 0.13 0.12 0.17 0.18 0.21 0.19 0.16 0.13 0.10 0.08 0.06 0.05 0.04 0.03 0.03 0.02 0.03 0.02 0.02 0.02

GFSMW_prec_precacc24_063.txt.gz
Total_Precipitation_Accumulation
0.00 0.00 0.00 0.00 0.00 0.00 0.02 0.05 0.21 0.20 0.32 0.28 0.18 0.21 0.29 0.46 0.25 0.18 0.06 0.01 0.00 0.02 0.03 0.01 0.03 0.02 0.04 0.01 0.01 0.00 0.00 0.00 0.00 0.00 0.00 0.00 0.00 0.00 0.00 0.00 0.00 0.00 0.00
0.00 0.00 0.00 0.00 0.00 0.00 0.01 0.02 0.03 0.08 0.17 0.22 0.23 0.09 0.09 0.14 0.13 0.09 0.09 0.02 0.02 0.01 0.03 0.04 0.04 0.04 0.04 0.02 0.01 0.00 0.00 0.00 0.00 0.00 0.00 0.00 0.00 0.00 0.00 0.00 0.00 0.00 0.00
0.00 0.00 0.00 0.00 0.00 0.00 0.01 0.01 0.00 0.02 0.05 0.13 0.24 0.16 0.12 0.10 0.11 0.05 0.03 0.00 0.04 0.00 0.00 0.02 0.03 0.04 0.03 0.01 0.00 0.00 0.00 0.00 0.00 0.00 0.00 0.00 0.00 0.00 0.00 0.00 0.00 0.00 0.00
0.00 0.00 0.00 0.00 0.00 0.00 0.00 0.01 0.01 0.00 0.01 0.03 0.06 0.05 0.07 0.06 0.02 0.00 0.01 0.01 0.03 0.03 0.00 0.02 0.01 0.01 0.01 0.02 0.04 0.02 0.02 0.01 0.01 0.01 0.01 0.00 0.03 0.10 0.09 0.01 0.00 0.00 0.00
0.00 0.00 0.00 0.00 0.00 0.00 0.00 0.01 0.01 0.01 0.00 0.01 0.01 0.01 0.01 0.01 0.01 0.01 0.00 0.01 0.03 0.05 0.01 0.04 0.04 0.04 0.06 0.09 0.15 0.11 0.10 0.09 0.14 0.11 0.03 0.01 0.00 0.01 0.13 0.11 0.05 0.01 0.00
0.00 0.00 0.00 0.00 0.00 0.00 0.00 0.00 0.01 0.01 0.00 0.00 0.00 0.00 0.00 0.00 0.00 0.00 0.00 0.00 0.01 0.06 0.10 0.10 0.11 0.15 0.17 0.20 0.24 0.30 0.19 0.14 0.15 0.25 0.14 0.13 0.09 0.05 0.05 0.05 0.06 0.10 0.05
0.00 0.00 0.00 0.00 0.00 0.00 0.00 0.00 0.00 0.01 0.01 0.00 0.00 0.00 0.00 0.00 0.00 0.00 0.00 0.00 0.00 0.10 0.17 0.13 0.16 0.13 0.17 0.25 0.26 0.32 0.28 0.29 0.25 0.24 0.22 0.20 0.16 0.10 0.09 0.14 0.09 0.12 0.11
0.00 0.00 0.00 0.00 0.00 0.00 0.00 0.00 0.00 0.00 0.01 0.01 0.00 0.00 0.00 0.00 0.00 0.00 0.01 0.01 0.01 0.02 0.09 0.16 0.26 0.26 0.19 0.25 0.28 0.27 0.26 0.26 0.29 0.29 0.27 0.25 0.21 0.18 0.20 0.26 0.33 0.30 0.21
0.00 0.00 0.00 0.00 0.00 0.00 0.00 0.00 0.00 0.00 0.00 0.01 0.00 0.00 0.00 0.00 0.00 0.03 0.04 0.04 0.05 0.03 0.08 0.19 0.26 0.26 0.37 0.44 0.46 0.42 0.34 0.35 0.26 0.22 0.20 0.17 0.11 0.15 0.16 0.15 0.19 0.21 0.24
0.00 0.00 0.00 0.00 0.00 0.00 0.02 0.01 0.00 0.01 0.03 0.03 0.02 0.00 0.00 0.00 0.03 0.02 0.03 0.06 0.10 0.16 0.24 0.31 0.36 0.41 0.41 0.44 0.43 0.36 0.30 0.27 0.20 0.15 0.15 0.16 0.15 0.16 0.21 0.21 0.19 0.24 0.31
0.00 0.00 0.00 0.00 0.00 0.00 0.01 0.05 0.06 0.03 0.08 0.14 0.19 0.10 0.04 0.04 0.10 0.17 0.21 0.21 0.36 0.39 0.36 0.38 0.36 0.29 0.25 0.31 0.37 0.41 0.44 0.43 0.37 0.32 0.28 0.23 0.27 0.30 0.29 0.30 0.29 0.26 0.26
0.00 0.00 0.00 0.01 0.01 0.00 0.00 0.01 0.05 0.05 0.07 0.20 0.22 0.22 0.16 0.21 0.60 0.78 0.77 1.03 1.30 0.97 0.83 0.66 0.43 0.28 0.18 0.12 0.12 0.16 0.18 0.20 0.20 0.22 0.26 0.25 0.31 0.39 0.34 0.27 0.20 0.16 0.14
0.00 0.00 0.00 0.00 0.01 0.04 0.02 0.00 0.02 0.04 0.13 0.18 0.22 0.28 0.34 0.45 0.54 0.26 0.22 0.27 0.43 0.44 0.27 0.18 0.12 0.08 0.05 0.03 0.03 0.06 0.12 0.16 0.13 0.13 0.15 0.13 0.14 0.12 0.10 0.10 0.10 0.10 0.12
0.00 0.00 0.00 0.00 0.00 0.03 0.05 0.05 0.03 0.07 0.08 0.11 0.19 0.17 0.14 0.16 0.21 0.22 0.17 0.14 0.15 0.14 0.15 0.14 0.15 0.10 0.05 0.03 0.03 0.02 0.03 0.04 0.05 0.06 0.05 0.07 0.07 0.07 0.07 0.09 0.09 0.09 0.08
0.00 0.00 0.00 0.00 0.00 0.00 0.01 0.02 0.04 0.06 0.06 0.09 0.10 0.07 0.09 0.13 0.11 0.07 0.11 0.15 0.16 0.24 0.21 0.20 0.11 0.10 0.10 0.08 0.08 0.04 0.03 0.04 0.04 0.03 0.03 0.04 0.08 0.09 0.05 0.03 0.03 0.04 0.06
0.00 0.00 0.00 0.00 0.00 0.00 0.00 0.00 0.00 0.02 0.03 0.03 0.09 0.09 0.08 0.09 0.10 0.05 0.06 0.09 0.11 0.13 0.18 0.20 0.19 0.16 0.15 0.23 0.20 0.13 0.07 0.05 0.04 0.04 0.05 0.06 0.11 0.06 0.09 0.10 0.11 0.10 0.09
0.00 0.00 0.00 0.00 0.00 0.00 0.00 0.00 0.00 0.00 0.01 0.04 0.04 0.05 0.06 0.08 0.06 0.09 0.06 0.08 0.11 0.09 0.10 0.12 0.16 0.19 0.19 0.28 0.20 0.19 0.09 0.09 0.10 0.08 0.07 0.06 0.09 0.15 0.06 0.15 0.18 0.17 0.21
0.00 0.00 0.00 0.00 0.00 0.00 0.00 0.00 0.00 0.00 0.01 0.03 0.03 0.04 0.04 0.06 0.08 0.09 0.08 0.08 0.08 0.09 0.08 0.09 0.12 0.10 0.13 0.21 0.17 0.17 0.07 0.05 0.06 0.06 0.07 0.07 0.08 0.15 0.17 0.12 0.17 0.21 0.29
0.00 0.00 0.00 0.00 0.00 0.00 0.00 0.00 0.00 0.01 0.01 0.02 0.02 0.03 0.05 0.06 0.05 0.06 0.05 0.05 0.07 0.10 0.10 0.11 0.10 0.09 0.13 0.22 0.15 0.11 0.03 0.07 0.11 0.09 0.11 0.16 0.13 0.40 0.34 0.19 0.22 0.29 0.32
0.00 0.00 0.00 0.00 0.00 0.00 0.00 0.01 0.00 0.00 0.01 0.01 0.01 0.02 0.02 0.02 0.01 0.03 0.03 0.04 0.06 0.06 0.05 0.06 0.06 0.14 0.08 0.28 0.21 0.16 0.05 0.11 0.13 0.13 0.18 0.35 0.20 0.33 0.21 0.12 0.08 0.20 0.27
0.00 0.00 0.00 0.00 0.00 0.00 0.00 0.00 0.00 0.00 0.00 0.01 0.01 0.03 0.03 0.04 0.04 0.02 0.02 0.03 0.03 0.03 0.04 0.05 0.05 0.08 0.14 0.21 0.27 0.23 0.08 0.07 0.13 0.18 0.20 0.29 0.44 0.27 0.29 0.26 0.25 0.42 0.47
0.00 0.00 0.00 0.00 0.00 0.00 0.00 0.00 0.00 0.00 0.01 0.03 0.04 0.05 0.06 0.08 0.06 0.06 0.08 0.09 0.07 0.08 0.08 0.07 0.06 0.06 0.10 0.20 0.21 0.19 0.20 0.26 0.13 0.21 0.24 0.40 0.46 0.29 0.30 0.30 0.35 0.38 0.33
0.00 0.00 0.00 0.00 0.00 0.00 0.00 0.00 0.01 0.03 0.05 0.06 0.07 0.09 0.09 0.06 0.05 0.08 0.11 0.12 0.11 0.12 0.13 0.11 0.12 0.14 0.15 0.19 0.28 0.25 0.28 0.31 0.29 0.40 0.52 0.59 0.51 0.43 0.42 0.42 0.38 0.32 0.27
0.01 0.00 0.00 0.00 0.00 0.00 0.00 0.02 0.05 0.04 0.04 0.04 0.08 0.07 0.06 0.09 0.05 0.09 0.11 0.11 0.11 0.14 0.16 0.19 0.22 0.25 0.27 0.28 0.27 0.26 0.28 0.34 0.39 0.50 0.55 0.52 0.47 0.42 0.39 0.34 0.28 0.23 0.19
0.03 0.02 0.01 0.02 0.03 0.04 0.06 0.07 0.07 0.10 0.12 0.10 0.11 0.11 0.11 0.12 0.11 0.12 0.19 0.17 0.23 0.33 0.34 0.35 0.34 0.34 0.41 0.53 0.59 0.58 0.61 0.64 0.67 0.64 0.64 0.62 0.53 0.47 0.39 0.28 0.19 0.14 0.11
0.19 0.15 0.13 0.11 0.11 0.13 0.18 0.19 0.18 0.16 0.17 0.16 0.18 0.22 0.17 0.17 0.17 0.16 0.24 0.40 0.44 0.43 0.48 0.53 0.52 0.67 0.74 0.85 0.84 0.79 0.76 0.72 0.65 0.55 0.51 0.46 0.35 0.25 0.20 0.17 0.13 0.08 0.05

GFSMW_prec_precacc24_069.txt.gz
Total_Precipitation_Accumulation
0.00 0.00 0.00 0.00 0.00 0.00 0.02 0.05 0.22 0.20 0.31 0.28 0.19 0.22 0.30 0.48 0.27 0.21 0.08 0.03 0.04 0.04 0.03 0.02 0.03 0.02 0.05 0.01 0.01 0.00 0.00 0.00 0.00 0.00 0.00 0.00 0.00 0.00 0.00 0.00 0.00 0.00 0.00
0.00 0.00 0.00 0.00 0.00 0.00 0.01 0.02 0.03 0.09 0.17 0.23 0.23 0.10 0.10 0.15 0.17 0.18 0.22 0.09 0.05 0.03 0.05 0.05 0.05 0.04 0.05 0.02 0.01 0.00 0.00 0.00 0.00 0.00 0.00 0.00 0.00 0.00 0.00 0.00 0.00 0.00 0.00
0.00 0.00 0.00 0.00 0.00 0.00 0.01 0.01 0.01 0.03 0.06 0.14 0.24 0.16 0.13 0.12 0.15 0.23 0.44 0.20 0.08 0.05 0.03 0.03 0.04 0.04 0.04 0.02 0.01 0.00 0.00 0.00 0.00 0.00 0.00 0.00 0.01 0.00 0.00 0.00 0.00 0.00 0.00
0.00 0.00 0.00 0.00 0.00 0.00 0.00 0.01 0.01 0.00 0.02 0.03 0.07 0.06 0.07 0.07 0.03 0.03 0.20 0.32 0.14 0.07 0.05 0.03 0.02 0.01 0.01 0.04 0.04 0.02 0.00 0.01 0.00 0.00 0.00 0.00 0.03 0.10 0.09 0.01 0.00 0.00 0.00
0.00 0.00 0.00 0.00 0.00 0.00 0.00 0.01 0.01 0.01 0.01 0.01 0.02 0.02 0.01 0.01 0.01 0.01 0.04 0.22 0.22 0.12 0.05 0.01 0.04 0.04 0.03 0.04 0.10 0.06 0.04 0.03 0.09 0.07 0.02 0.01 0.00 0.01 0.13 0.11 0.05 0.01 0.00
0.00 0.00 0.00 0.00 0.00 0.00 0.00 0.00 0.01 0.01 0.01 0.00 0.01 0.00 0.00 0.00 0.00 0.00 0.00 0.04 0.12 0.12 0.10 0.04 0.03 0.08 0.10 0.10 0.17 0.24 0.14 0.09 0.13 0.25 0.14 0.13 0.09 0.05 0.05 0.05 0.06 0.10 0.05
0.00 0.00 0.00 0.00 0.00 0.00 0.00 0.00 0.00 0.01 0.01 0.00 0.00 0.01 0.00 0.00 0.00 0.00 0.00 0.00 0.01 0.06 0.07 0.05 0.05 0.04 0.05 0.08 0.15 0.27 0.26 0.25 0.24 0.24 0.22 0.20 0.16 0.10 0.09 0.14 0.10 0.12 0.11
0.00 0.00 0.00 0.00 0.00 0.00 0.00 0.00 0.00 0.00 0.01 0.01 0.00 0.00 0.00 0.00 0.00 0.00 0.00 0.00 0.00 0.00 0.00 0.01 0.03 0.04 0.04 0.06 0.08 0.14 0.21 0.23 0.28 0.29 0.27 0.25 0.21 0.19 0.20 0.27 0.34 0.31 0.21
0.00 0.00 0.00 0.00 0.00 0.00 0.00 0.00 0.00 0.00 0.00 0.01 0.01 0.00 0.00 0.00 0.00 0.00 0.00 0.00 0.00 0.00 0.00 0.00 0.02 0.02 0.06 0.16 0.24 0.31 0.30 0.34 0.26 0.22 0.20 0.17 0.10 0.15 0.17 0.16 0.19 0.23 0.25
0.00 0.00 0.00 0.00 0.00 0.00 0.00 0.00 0.00 0.00 0.00 0.00 0.01 0.00 0.00 0.00 0.00 0.00 0.00 0.00 0.00 0.00 0.00 0.01 0.03 0.05 0.10 0.24 0.30 0.30 0.27 0.26 0.19 0.14 0.14 0.14 0.13 0.14 0.20 0.19 0.19 0.25 0.32
0.00 0.00 0.00 0.00 0.00 0.00 0.00 0.00 0.00 0.01 0.01 0.00 0.02 0.02 0.00 0.00 0.00 0.00 0.00 0.00 0.00 0.00 0.01 0.04 0.06 0.08 0.12 0.25 0.35 0.39 0.43 0.41 0.34 0.30 0.24 0.20 0.24 0.28 0.27 0.28 0.28 0.26 0.27
0.00 0.00 0.00 0.01 0.01 0.01 0.01 0.01 0.01 0.02 0.01 0.04 0.03 0.08 0.06 0.02 0.00 0.01 0.01 0.01 0.01 0.03 0.09 0.09 0.15 0.21 0.13 0.10 0.12 0.15 0.16 0.17 0.17 0.18 0.21 0.20 0.28 0.37 0.33 0.26 0.20 0.16 0.14
0.00 0.00 0.01 0.02 0.04 0.13 0.15 0.15 0.11 0.07 0.06 0.05 0.04 0.03 0.06 0.06 0.03 0.01 0.01 0.00 0.01 0.03 0.05 0.07 0.05 0.02 0.00 0.01 0.01 0.04 0.10 0.13 0.10 0.10 0.11 0.11 0.12 0.11 0.10 0.10 0.09 0.10 0.12
0.02 0.03 0.03 0.04 0.07 0.12 0.16 0.20 0.17 0.15 0.09 0.07 0.03 0.03 0.03 0.04 0.06 0.07 0.06 0.03 0.03 0.05 0.09 0.08 0.08 0.05 0.01 0.00 0.00 0.00 0.01 0.03 0.03 0.05 0.05 0.07 0.07 0.07 0.07 0.09 0.09 0.09 0.08
0.00 0.01 0.01 0.01 0.01 0.02 0.03 0.05 0.05 0.06 0.09 0.10 0.05 0.07 0.06 0.06 0.06 0.04 0.08 0.07 0.06 0.09 0.11 0.11 0.05 0.05 0.06 0.04 0.06 0.03 0.03 0.03 0.03 0.03 0.03 0.04 0.07 0.08 0.05 0.03 0.03 0.04 0.06
0.00 0.00 0.00 0.00 0.00 0.00 0.00 0.00 0.00 0.02 0.02 0.02 0.06 0.10 0.03 0.06 0.08 0.10 0.16 0.11 0.05 0.08 0.12 0.13 0.13 0.10 0.10 0.18 0.19 0.12 0.07 0.05 0.04 0.04 0.05 0.06 0.10 0.06 0.09 0.10 0.11 0.10 0.09
0.00 0.00 0.00 0.00 0.00 0.00 0.00 0.00 0.00 0.00 0.00 0.00 0.01 0.01 0.01 0.01 0.03 0.09 0.09 0.07 0.09 0.16 0.10 0.12 0.16 0.18 0.19 0.27 0.21 0.20 0.10 0.09 0.10 0.08 0.07 0.06 0.09 0.15 0.06 0.15 0.18 0.17 0.23
0.01 0.00 0.00 0.00 0.00 0.00 0.00 0.00 0.00 0.00 0.00 0.00 0.00 0.00 0.00 0.01 0.02 0.04 0.05 0.08 0.12 0.14 0.12 0.14 0.15 0.15 0.15 0.23 0.25 0.32 0.16 0.09 0.07 0.07 0.07 0.07 0.08 0.15 0.17 0.12 0.18 0.22 0.29
0.01 0.00 0.00 0.00 0.00 0.00 0.00 0.00 0.00 0.00 0.00 0.00 0.00 0.00 0.01 0.01 0.02 0.04 0.05 0.07 0.09 0.12 0.14 0.14 0.16 0.15 0.15 0.30 0.29 0.29 0.17 0.15 0.16 0.14 0.14 0.18 0.14 0.43 0.40 0.24 0.23 0.30 0.34
0.00 0.00 0.00 0.00 0.00 0.00 0.00 0.00 0.00 0.00 0.00 0.00 0.00 0.01 0.01 0.01 0.01 0.03 0.02 0.05 0.08 0.08 0.09 0.08 0.09 0.23 0.15 0.38 0.32 0.27 0.12 0.14 0.16 0.18 0.22 0.43 0.27 0.39 0.28 0.17 0.10 0.22 0.31
0.00 0.00 0.00 0.00 0.00 0.00 0.00 0.00 0.00 0.00 0.00 0.00 0.00 0.03 0.03 0.03 0.04 0.02 0.02 0.03 0.04 0.04 0.05 0.08 0.08 0.14 0.24 0.31 0.42 0.36 0.21 0.15 0.22 0.28 0.30 0.41 0.74 0.45 0.47 0.47 0.37 0.67 0.74
0.00 0.00 0.00 0.00 0.00 0.00 0.00 0.00 0.00 0.00 0.01 0.02 0.04 0.05 0.06 0.08 0.06 0.06 0.08 0.09 0.07 0.08 0.09 0.09 0.11 0.12 0.15 0.31 0.31 0.31 0.34 0.46 0.33 0.48 0.47 0.67 0.76 0.49 0.56 0.65 0.83 0.90 0.73
0.00 0.00 0.00 0.00 0.00 0.00 0.00 0.00 0.01 0.03 0.05 0.06 0.07 0.09 0.09 0.06 0.05 0.08 0.11 0.12 0.11 0.13 0.15 0.17 0.21 0.23 0.22 0.29 0.43 0.37 0.45 0.57 0.58 0.81 0.99 1.01 0.84 0.74 0.79 0.90 0.94 0.92 0.89
0.01 0.00 0.00 0.00 0.00 0.00 0.00 0.02 0.05 0.04 0.04 0.04 0.08 0.07 0.06 0.09 0.05 0.09 0.11 0.11 0.12 0.16 0.21 0.29 0.35 0.36 0.39 0.39 0.38 0.40 0.43 0.56 0.70 0.97 1.09 1.07 1.00 0.95 0.99 1.00 0.96 0.94 0.97
0.03 0.02 0.01 0.02 0.03 0.05 0.07 0.07 0.07 0.10 0.12 0.10 0.11 0.11 0.11 0.12 0.11 0.14 0.23 0.20 0.31 0.40 0.40 0.46 0.49 0.52 0.65 0.88 0.96 0.95 1.02 1.09 1.22 1.26 1.34 1.37 1.33 1.31 1.27 1.16 1.02 0.92 0.83
0.19 0.15 0.13 0.11 0.11 0.13 0.18 0.19 0.18 0.16 0.17 0.16 0.18 0.22 0.17 0.18 0.18 0.18 0.27 0.46 0.52 0.51 0.58 0.65 0.67 0.94 1.13 1.26 1.23 1.23 1.25 1.25 1.22 1.09 1.06 0.99 0.88 0.78 0.69 0.61 0.53 0.44 0.35

GFSMW_prec_precacc24_075.txt.gz
Total_Precipitation_Accumulation
0.00 0.00 0.00 0.00 0.00 0.00 0.01 0.02 0.13 0.11 0.07 0.06 0.11 0.20 0.28 0.48 0.28 0.23 0.36 0.65 0.69 0.56 0.17 0.11 0.04 0.03 0.04 0.01 0.00 0.00 0.00 0.00 0.00 0.00 0.00 0.00 0.00 0.00 0.00 0.00 0.00 0.00 0.00
0.00 0.00 0.00 0.00 0.00 0.00 0.01 0.01 0.01 0.05 0.08 0.08 0.07 0.07 0.09 0.16 0.17 0.18 0.28 0.32 0.50 0.62 0.28 0.17 0.07 0.02 0.02 0.02 0.00 0.00 0.00 0.00 0.00 0.00 0.00 0.00 0.00 0.00 0.00 0.00 0.00 0.00 0.00
0.00 0.00 0.00 0.00 0.00 0.00 0.01 0.01 0.01 0.02 0.03 0.09 0.09 0.13 0.12 0.12 0.15 0.25 0.47 0.31 0.26 0.48 0.37 0.19 0.08 0.01 0.01 0.01 0.00 0.00 0.00 0.00 0.00 0.00 0.00 0.00 0.01 0.00 0.00 0.00 0.00 0.00 0.00
0.00 0.00 0.00 0.00 0.00 0.00 0.00 0.01 0.01 0.01 0.02 0.03 0.04 0.06 0.08 0.07 0.04 0.03 0.22 0.43 0.20 0.19 0.27 0.21 0.09 0.01 0.01 0.03 0.02 0.01 0.00 0.00 0.00 0.00 0.00 0.00 0.03 0.10 0.10 0.02 0.00 0.00 0.00
0.00 0.00 0.00 0.00 0.00 0.00 0.00 0.01 0.01 0.01 0.01 0.02 0.02 0.02 0.01 0.02 0.01 0.02 0.04 0.27 0.41 0.23 0.13 0.20 0.15 0.07 0.02 0.03 0.07 0.03 0.01 0.00 0.06 0.04 0.00 0.00 0.00 0.01 0.12 0.10 0.05 0.01 0.00
0.00 0.00 0.00 0.00 0.00 0.00 0.00 0.00 0.01 0.02 0.01 0.01 0.01 0.01 0.01 0.00 0.00 0.01 0.01 0.06 0.25 0.42 0.26 0.19 0.22 0.15 0.10 0.09 0.15 0.16 0.06 0.02 0.07 0.20 0.10 0.11 0.07 0.04 0.04 0.04 0.05 0.10 0.05
0.00 0.00 0.00 0.00 0.00 0.00 0.00 0.00 0.00 0.01 0.02 0.01 0.01 0.01 0.01 0.01 0.01 0.01 0.00 0.01 0.04 0.17 0.26 0.17 0.19 0.21 0.11 0.07 0.11 0.24 0.19 0.16 0.16 0.16 0.13 0.13 0.12 0.06 0.07 0.12 0.09 0.12 0.11
0.00 0.00 0.00 0.00 0.00 0.00 0.00 0.00 0.00 0.00 0.02 0.01 0.00 0.00 0.01 0.00 0.00 0.01 0.01 0.01 0.00 0.01 0.05 0.11 0.13 0.16 0.19 0.14 0.10 0.14 0.15 0.15 0.15 0.10 0.08 0.07 0.06 0.08 0.10 0.23 0.32 0.29 0.20
0.00 0.00 0.00 0.00 0.00 0.00 0.00 0.00 0.00 0.00 0.01 0.01 0.01 0.00 0.00 0.00 0.00 0.00 0.00 0.01 0.01 0.00 0.00 0.03 0.13 0.13 0.13 0.14 0.13 0.13 0.12 0.16 0.12 0.10 0.09 0.07 0.02 0.07 0.12 0.13 0.17 0.19 0.20
0.00 0.00 0.00 0.00 0.00 0.00 0.00 0.00 0.00 0.01 0.00 0.00 0.01 0.00 0.00 0.00 0.00 0.00 0.00 0.00 0.01 0.01 0.00 0.00 0.02 0.11 0.13 0.11 0.13 0.10 0.08 0.11 0.08 0.09 0.14 0.15 0.09 0.09 0.15 0.14 0.15 0.22 0.29
0.00 0.00 0.00 0.00 0.00 0.01 0.03 0.01 0.00 0.00 0.00 0.00 0.00 0.00 0.00 0.00 0.00 0.00 0.00 0.00 0.00 0.01 0.00 0.00 0.00 0.00 0.01 0.01 0.05 0.10 0.05 0.03 0.02 0.04 0.08 0.12 0.16 0.23 0.21 0.22 0.24 0.24 0.27
0.01 0.01 0.01 0.02 0.02 0.05 0.04 0.02 0.02 0.02 0.01 0.02 0.01 0.00 0.00 0.00 0.00 0.00 0.00 0.00 0.00 0.00 0.00 0.00 0.00 0.00 0.00 0.00 0.00 0.01 0.04 0.04 0.05 0.07 0.12 0.13 0.20 0.30 0.27 0.22 0.17 0.14 0.14
0.02 0.01 0.04 0.06 0.10 0.17 0.19 0.18 0.16 0.17 0.14 0.09 0.03 0.02 0.01 0.01 0.00 0.00 0.00 0.00 0.00 0.00 0.00 0.00 0.00 0.00 0.00 0.00 0.00 0.00 0.00 0.00 0.03 0.07 0.07 0.05 0.05 0.05 0.06 0.08 0.08 0.08 0.10
0.07 0.06 0.06 0.10 0.16 0.24 0.30 0.30 0.31 0.29 0.18 0.10 0.05 0.06 0.03 0.02 0.04 0.02 0.00 0.00 0.00 0.00 0.00 0.00 0.00 0.00 0.00 0.00 0.00 0.00 0.00 0.01 0.01 0.01 0.02 0.03 0.04 0.04 0.04 0.06 0.06 0.07 0.08
0.03 0.08 0.09 0.08 0.10 0.13 0.16 0.15 0.13 0.11 0.12 0.11 0.06 0.09 0.07 0.07 0.07 0.04 0.03 0.02 0.01 0.00 0.00 0.00 0.00 0.00 0.00 0.00 0.00 0.00 0.01 0.00 0.00 0.01 0.01 0.02 0.03 0.03 0.02 0.03 0.03 0.03 0.06
0.00 0.01 0.01 0.02 0.03 0.05 0.03 0.02 0.03 0.04 0.03 0.02 0.06 0.11 0.04 0.08 0.09 0.13 0.16 0.10 0.04 0.08 0.04 0.03 0.03 0.03 0.04 0.07 0.05 0.04 0.02 0.02 0.01 0.01 0.02 0.02 0.05 0.04 0.07 0.09 0.11 0.09 0.09
0.00 0.00 0.00 0.00 0.00 0.00 0.00 0.00 0.00 0.01 0.03 0.03 0.01 0.01 0.01 0.01 0.03 0.08 0.09 0.08 0.08 0.13 0.09 0.11 0.11 0.10 0.14 0.25 0.17 0.18 0.08 0.04 0.05 0.04 0.05 0.05 0.07 0.13 0.06 0.14 0.17 0.17 0.23
0.13 0.07 0.03 0.01 0.00 0.00 0.00 0.00 0.00 0.00 0.00 0.00 0.00 0.00 0.00 0.01 0.02 0.03 0.01 0.03 0.06 0.06 0.08 0.09 0.09 0.13 0.16 0.24 0.28 0.37 0.23 0.11 0.08 0.06 0.10 0.11 0.10 0.17 0.22 0.14 0.18 0.22 0.30
0.23 0.18 0.06 0.03 0.01 0.00 0.00 0.00 0.00 0.00 0.00 0.00 0.00 0.00 0.00 0.00 0.01 0.01 0.01 0.02 0.02 0.03 0.04 0.06 0.09 0.11 0.10 0.28 0.28 0.29 0.18 0.15 0.16 0.20 0.28 0.36 0.22 0.50 0.47 0.28 0.28 0.35 0.44
0.08 0.04 0.03 0.02 0.01 0.00 0.00 0.00 0.00 0.00 0.00 0.00 0.00 0.00 0.00 0.00 0.00 0.00 0.00 0.01 0.02 0.02 0.04 0.04 0.05 0.18 0.11 0.32 0.28 0.25 0.12 0.13 0.17 0.24 0.36 0.74 0.37 0.41 0.31 0.21 0.14 0.37 0.68
0.02 0.00 0.00 0.01 0.01 0.00 0.00 0.00 0.00 0.00 0.00 0.00 0.00 0.00 0.00 0.00 0.01 0.01 0.01 0.01 0.01 0.02 0.03 0.05 0.06 0.11 0.21 0.28 0.39 0.35 0.21 0.16 0.25 0.36 0.40 0.51 0.90 0.49 0.53 0.61 0.50 1.07 1.16
0.00 0.00 0.00 0.00 0.00 0.00 0.00 0.00 0.00 0.00 0.00 0.00 0.00 0.00 0.01 0.03 0.04 0.05 0.07 0.07 0.05 0.06 0.06 0.07 0.09 0.10 0.13 0.31 0.31 0.30 0.34 0.47 0.36 0.55 0.57 0.81 0.89 0.55 0.63 0.79 1.10 1.30 1.15
0.00 0.00 0.00 0.00 0.00 0.00 0.00 0.00 0.00 0.00 0.00 0.00 0.00 0.01 0.04 0.04 0.04 0.07 0.09 0.10 0.09 0.09 0.10 0.14 0.19 0.22 0.21 0.28 0.43 0.37 0.45 0.58 0.60 0.86 1.09 1.14 0.96 0.85 0.94 1.10 1.18 1.20 1.22
0.01 0.00 0.00 0.00 0.01 0.00 0.00 0.00 0.00 0.00 0.00 0.01 0.05 0.05 0.06 0.09 0.05 0.08 0.10 0.10 0.10 0.14 0.19 0.28 0.35 0.37 0.39 0.39 0.38 0.40 0.44 0.58 0.72 1.00 1.14 1.13 1.09 1.07 1.14 1.19 1.18 1.19 1.27
0.03 0.02 0.01 0.02 0.04 0.04 0.05 0.05 0.05 0.08 0.11 0.09 0.11 0.11 0.11 0.12 0.12 0.16 0.23 0.21 0.33 0.40 0.41 0.47 0.50 0.53 0.68 0.93 0.97 0.96 1.03 1.11 1.25 1.29 1.39 1.42 1.40 1.37 1.34 1.25 1.16 1.06 0.96
0.18 0.15 0.14 0.11 0.10 0.11 0.16 0.18 0.17 0.16 0.17 0.16 0.18 0.22 0.17 0.18 0.18 0.18 0.28 0.47 0.52 0.51 0.58 0.65 0.66 0.94 1.14 1.25 1.22 1.23 1.25 1.27 1.25 1.12 1.10 1.05 0.95 0.85 0.77 0.68 0.60 0.49 0.41